Theta_e
326 325 326 329 336 330 331 333 337 336 341 343 340 339 349 356 354 350 352 351 350 350 347 345 342 342 343 343 345 345 345 345 346 347 348 350 351 352 352 349 344 345 347 346
328 324 327 334 332 339 337 335 335 336 341 332 337 350 357 351 345 348 351 352 352 349 347 346 345 345 344 344 345 347 347 348 347 348 350 351 350 350 349 350 353 351 352 353
327 322 328 332 333 334 341 335 334 341 338 335 344 353 352 345 340 341 344 342 341 344 349 349 348 345 347 348 349 349 350 350 349 349 350 347 345 345 344 342 339 344 351 352
323 324 332 329 330 330 338 340 342 342 336 340 348 353 348 342 339 340 340 340 340 339 340 340 343 344 346 348 348 345 345 345 348 345 341 344 338 334 334 343 344 345 342 344
323 323 325 334 335 342 339 341 340 343 343 347 352 351 349 345 341 341 341 343 342 342 342 342 342 341 339 339 339 341 345 346 345 344 339 337 335 337 342 339 340 345 345 338
320 327 329 331 333 336 340 345 340 344 345 349 349 344 343 345 343 341 343 343 343 343 343 344 343 342 342 342 340 337 336 336 336 337 341 340 343 343 339 337 336 335 337 339
323 325 327 328 336 333 340 338 340 345 348 349 345 342 346 346 344 344 344 344 344 343 343 343 343 343 342 342 333 333 336 337 337 335 336 338 340 338 335 335 335 338 339 339
328 331 334 335 336 334 331 338 342 345 348 349 346 346 346 342 340 340 340 342 344 344 344 343 342 342 343 342 333 334 335 335 334 333 334 336 335 335 335 335 335 337 336 335
333 333 331 335 335 338 341 342 343 344 345 347 345 337 338 340 343 343 343 343 343 343 341 340 339 342 341 339 335 337 338 338 337 338 336 336 335 336 337 337 336 335 336 336
333 333 334 337 339 340 340 339 339 338 339 345 342 336 337 341 340 342 343 342 340 338 334 338 341 342 341 338 340 342 339 337 336 337 336 336 334 338 338 338 337 337 335 341
329 331 334 335 338 339 339 339 338 337 337 337 337 336 336 337 338 340 340 339 339 341 342 341 339 340 342 339 339 333 333 332 331 332 334 333 336 336 336 338 335 334 333 340
330 332 333 334 335 337 335 335 334 333 333 333 336 337 337 339 340 340 339 339 342 343 342 342 342 342 342 338 335 334 330 331 333 333 333 336 336 333 335 335 334 332 336 336
331 332 332 332 334 334 334 333 333 334 334 333 339 340 339 338 338 340 340 340 341 341 341 342 344 345 340 339 334 333 332 333 334 329 333 335 334 334 335 337 335 335 334 337
331 331 332 334 333 334 333 333 334 335 337 338 338 338 338 339 340 337 334 340 342 341 344 345 344 341 341 341 340 340 332 336 334 335 331 330 335 335 336 335 332 335 335 336
330 329 330 331 336 334 333 334 335 336 338 337 337 338 339 338 337 337 338 343 340 341 339 338 338 337 338 337 338 340 335 339 338 337 339 337 336 332 335 333 334 334 334 332
333 333 333 331 334 334 334 335 334 335 338 338 338 338 338 337 338 338 340 343 342 341 339 339 339 336 338 335 332 336 338 339 339 339 339 339 338 336 336 336 334 330 332 334
333 333 333 332 332 335 335 334 333 334 336 338 338 338 338 338 337 339 340 338 335 334 341 340 339 338 337 339 337 338 339 339 339 341 339 339 338 337 337 336 336 331 333 332
330 331 333 333 333 332 335 333 333 334 336 336 338 338 338 337 335 334 334 329 329 337 342 342 338 334 336 338 340 339 339 339 337 338 337 337 335 332 331 334 337 336 332 333
334 333 331 330 330 333 331 332 332 334 337 336 338 338 338 336 333 332 330 328 329 339 339 336 336 337 337 336 335 336 336 336 336 336 336 332 330 330 331 333 332 336 333 332
332 333 335 334 332 331 331 332 331 332 335 337 338 338 337 335 330 329 329 327 329 338 335 335 334 330 327 327 328 327 326 334 338 335 333 335 336 337 338 337 337 337 336 336
333 332 331 333 335 332 332 331 332 331 333 337 338 337 335 333 329 328 326 325 333 338 333 332 330 326 323 326 326 326 325 337 337 336 336 337 336 334 336 336 336 337 337 337
334 333 330 330 332 335 333 332 332 333 334 338 337 336 334 330 328 324 320 332 338 336 334 333 327 325 325 327 329 326 329 336 335 334 333 332 335 336 334 335 335 335 334 335
332 335 334 334 331 332 334 332 332 333 336 337 336 336 334 331 327 321 321 332 331 332 334 329 325 325 326 328 330 331 332 333 332 333 334 333 332 331 330 332 330 329 331 334
325 332 333 333 335 333 334 333 332 333 336 336 336 335 333 328 324 324 328 329 330 330 332 326 325 325 328 326 326 327 328 327 328 328 329 331 331 332 332 332 331 331 328 328
322 326 330 330 333 334 334 333 333 333 335 337 336 333 331 328 325 324 326 329 329 331 327 327 326 326 325 325 325 325 325 325 325 326 326 324 324 326 328 324 331 332 331 329
319 324 327 329 330 334 334 333 333 334 334 336 334 332 330 324 321 325 328 330 331 327 327 328 327 327 326 326 326 326 325 326 326 325 325 324 324 324 324 325 326 329 332 331
316 320 324 327 329 332 335 334 333 334 334 336 334 332 330 324 325 325 327 328 327 327 328 326 325 325 324 323 322 322 322 324 324 324 324 324 324 324 324 324 325 325 327 332
Wind_Speed
2 5 3 3 4 2 3 4 5 5 8 2 4 4 5 3 5 6 13 14 12 5 3 5 9 17 18 18 20 20 19 27 27 28 29 26 24 23 24 26 27 27 27 28
3 7 5 2 6 6 3 5 4 5 1 4 9 7 5 4 9 13 14 16 16 12 8 5 3 2 7 10 13 16 18 23 29 29 26 23 21 21 18 24 26 25 26 25
3 5 5 5 5 3 1 2 5 6 5 5 4 7 5 6 9 13 12 14 16 16 13 10 5 2 4 6 7 8 11 14 14 18 23 29 27 24 21 25 33 30 24 22
2 4 1 6 6 4 2 2 1 4 4 11 12 8 6 6 9 13 13 13 15 16 17 15 10 4 3 10 13 12 5 10 13 10 16 24 31 29 33 32 30 24 34 41
3 2 5 5 4 1 1 2 2 5 7 14 14 10 5 7 8 9 10 10 13 12 11 10 9 10 10 11 10 5 4 11 16 19 18 20 22 18 19 23 21 22 21 29
2 2 3 6 3 4 1 3 6 11 13 18 15 3 3 8 7 5 5 5 5 5 6 6 6 6 7 8 10 8 7 7 7 10 12 18 23 18 17 16 13 13 15 19
2 2 6 5 5 2 6 6 10 17 21 24 6 3 7 10 7 4 3 1 2 4 6 7 6 6 7 9 9 5 4 3 3 3 5 8 11 12 12 13 13 13 13 13
2 3 3 2 3 4 5 2 10 16 20 21 8 8 13 9 6 4 2 3 8 9 11 10 6 3 5 7 4 3 3 3 3 3 4 6 10 12 14 15 15 15 17 17
6 5 4 5 7 4 5 12 11 13 14 16 10 10 11 11 11 10 8 8 9 9 6 6 2 0 1 3 3 6 8 8 6 4 4 7 9 10 12 13 13 13 15 17
3 3 4 4 10 11 10 10 8 8 9 12 13 9 10 11 11 11 10 7 4 4 4 3 3 2 1 2 3 5 4 2 2 3 7 10 10 8 8 7 6 8 12 12
2 4 1 4 8 11 11 11 11 10 10 12 14 12 12 13 12 10 9 5 3 3 2 3 4 4 3 2 2 1 1 2 3 5 7 8 7 8 10 6 2 4 6 4
5 5 4 8 12 14 16 15 12 10 9 11 15 15 13 12 13 10 5 4 6 7 8 7 7 6 4 4 4 5 3 6 6 9 12 8 9 12 6 2 1 1 4 9
4 2 4 12 10 17 17 14 9 6 5 9 16 16 14 12 10 7 4 5 5 7 11 10 8 6 4 4 6 6 5 5 6 11 5 9 11 6 1 2 3 4 2 6
8 6 9 10 13 20 17 13 10 5 6 14 17 16 15 13 11 6 3 4 2 4 5 1 4 5 5 6 7 8 7 7 7 10 11 13 9 5 6 8 9 7 5 2
26 25 20 14 10 16 18 18 15 13 17 19 18 16 16 13 8 5 6 6 3 2 3 4 5 6 7 7 8 8 9 8 10 12 14 13 12 11 12 5 7 9 7 3
6 7 15 18 13 19 21 20 19 19 21 21 20 20 17 12 9 7 7 8 8 7 7 5 5 6 5 6 7 3 6 7 9 11 13 14 13 11 13 10 3 1 4 3
7 5 3 11 13 18 23 23 22 20 21 24 22 21 19 15 11 10 9 9 10 7 4 3 1 4 5 4 2 2 3 5 8 10 12 13 12 14 10 9 4 2 2 2
15 18 15 12 11 18 21 23 22 23 23 21 25 25 21 16 10 9 9 8 5 5 5 4 2 3 4 3 3 4 5 6 8 8 11 12 11 12 10 6 5 6 8 6
9 17 20 23 20 16 19 20 21 27 27 27 29 28 22 14 12 10 9 8 7 7 6 4 2 1 3 4 3 4 5 5 7 9 11 7 8 10 6 3 6 5 2 2
9 5 5 11 18 22 23 20 17 23 28 32 32 27 22 17 14 12 10 9 9 9 7 6 4 0 5 7 7 7 7 5 6 9 3 5 7 6 7 7 3 2 3 1
15 13 11 10 8 20 24 23 19 23 30 36 34 29 23 17 15 14 12 12 13 12 10 6 3 3 6 6 7 8 5 3 4 3 6 7 7 7 5 6 7 6 3 5
16 14 13 17 14 13 20 23 20 21 30 37 34 27 22 20 17 15 13 13 15 14 11 7 3 5 4 5 7 4 1 3 4 3 5 7 8 8 6 7 7 7 6 6
14 15 16 19 22 18 18 26 23 22 31 37 34 30 26 21 17 17 18 19 16 15 12 7 5 5 3 1 2 3 2 1 3 4 4 4 7 8 8 7 7 8 7 6
14 11 13 16 18 21 21 28 28 26 30 36 34 32 25 21 20 19 17 18 14 16 14 9 7 5 5 3 4 4 4 3 4 6 7 7 7 6 5 6 5 7 10 8
17 13 12 13 15 17 23 29 31 27 32 38 37 30 24 21 19 19 20 21 18 20 17 12 10 9 8 7 8 10 10 11 11 10 8 8 9 10 11 10 10 8 6 8
19 19 14 12 14 15 18 25 32 32 30 39 37 31 26 23 22 20 18 20 22 20 17 14 12 12 12 12 13 14 15 15 15 15 14 12 11 11 12 13 11 11 10 7
17 20 19 15 10 10 14 21 29 34 36 39 41 36 30 28 25 23 25 23 22 20 16 13 12 13 14 15 16 16 17 18 16 14 14 15 15 16 16 15 13 12 12 11
Wind_Direction
265 275 231 291 11 164 169 170 141 227 198 125 157 84 22 27 38 39 41 40 46 74 142 225 230 223 231 245 252 252 243 248 255 255 258 262 268 276 281 280 272 269 270 269
353 355 8 100 53 70 53 123 84 105 359 152 100 104 95 53 56 49 38 41 45 50 58 62 90 296 259 258 265 268 258 245 247 252 251 259 263 258 270 299 287 274 273 275
289 352 3 6 356 301 200 174 155 153 220 115 101 122 138 99 82 74 59 51 51 50 51 63 66 131 168 185 199 225 250 253 253 262 254 259 265 271 267 311 299 291 267 272
236 19 77 242 327 202 108 81 90 61 108 143 152 141 132 124 104 96 85 69 59 66 67 64 64 44 290 256 264 256 233 246 221 241 277 248 247 255 268 302 291 279 268 266
116 164 293 323 339 93 236 239 13 132 128 133 132 125 139 164 120 106 94 88 73 62 58 53 48 39 29 23 11 351 274 248 275 271 279 234 236 271 283 280 290 280 267 249
106 121 186 243 296 2 118 311 178 163 152 144 148 115 249 149 112 105 111 97 78 63 38 15 14 13 14 2 342 337 322 323 312 300 285 276 271 272 279 287 292 278 269 261
134 179 285 256 306 31 87 237 173 173 167 160 155 161 138 148 148 123 82 18 303 324 331 338 329 343 350 349 359 5 18 3 340 325 291 284 271 270 274 276 274 279 283 283
91 79 266 337 22 150 218 152 175 169 176 181 159 140 155 157 163 170 164 288 296 308 318 323 335 329 325 332 8 63 57 11 327 280 273 258 268 277 276 276 278 273 274 277
169 214 264 296 257 248 139 139 145 163 185 198 172 165 168 178 190 204 231 261 284 302 311 327 10 24 319 314 270 307 318 318 317 302 284 280 282 283 290 284 278 291 293 286
72 283 322 58 136 135 132 123 132 143 148 176 195 202 212 207 207 220 227 239 270 323 8 338 328 327 345 261 270 291 302 320 322 317 310 319 301 290 306 304 289 303 312 289
276 272 254 207 185 178 170 169 172 184 200 212 213 222 223 221 209 195 192 200 242 300 339 0 347 315 287 265 246 236 287 320 326 298 294 298 292 297 308 297 298 330 11 348
215 192 198 224 213 198 186 184 184 196 214 223 215 203 192 184 174 176 193 229 257 273 287 296 300 303 288 247 247 262 291 331 319 315 312 325 329 311 281 222 158 87 24 25
158 197 282 263 245 209 202 197 207 232 256 249 187 178 171 178 183 187 212 256 269 304 295 268 257 266 276 257 254 269 277 303 323 339 349 357 1 15 262 282 327 305 67 53
231 284 290 283 213 205 202 205 197 208 198 176 176 178 185 183 175 191 221 226 278 343 355 288 252 269 280 282 277 271 258 272 285 327 319 323 332 311 281 282 293 300 321 22
265 272 266 268 233 197 198 198 193 191 185 185 188 188 187 187 192 213 217 214 232 322 332 327 314 297 293 292 284 262 240 268 280 301 319 322 319 311 293 265 281 291 287 304
296 258 245 233 223 196 196 197 202 198 197 196 198 197 198 201 217 226 228 236 251 269 292 291 319 318 320 334 327 246 235 265 286 304 314 310 310 312 320 326 294 13 14 268
268 241 216 227 235 221 214 214 215 219 214 205 210 205 205 207 218 221 232 255 268 266 232 221 284 323 331 343 334 310 299 295 298 304 304 307 316 315 310 318 307 253 318 311
262 258 264 273 277 243 224 218 225 223 216 217 210 207 209 214 226 226 239 246 239 213 204 210 268 320 342 339 314 302 305 295 305 311 309 315 323 313 298 316 309 285 283 284
254 249 252 253 256 257 229 228 233 224 219 216 209 212 213 215 227 229 227 236 221 205 194 191 187 335 343 351 346 313 315 308 305 313 315 328 358 14 29 338 324 342 317 268
11 15 316 262 239 238 236 242 241 226 219 215 212 207 208 216 228 225 224 228 208 188 190 174 150 52 316 309 311 310 308 301 306 319 21 357 353 7 9 3 2 39 43 36
355 349 332 333 293 237 239 236 242 235 218 210 207 208 215 218 223 227 228 214 197 190 183 183 188 310 324 325 321 318 305 281 318 332 326 345 354 346 1 22 26 16 305 282
351 340 315 301 294 261 233 233 238 235 216 207 208 211 210 217 223 226 217 199 189 192 195 194 258 293 302 324 338 351 289 274 306 329 328 327 331 342 346 341 341 335 330 313
351 344 327 298 280 269 242 230 227 225 213 208 209 210 216 224 224 219 209 199 200 201 195 204 251 245 252 329 39 52 30 301 279 298 321 341 347 344 345 351 11 4 342 317
344 327 321 331 288 248 231 225 219 221 219 215 217 217 213 214 215 209 201 198 204 208 191 195 207 221 208 252 278 287 283 281 284 283 286 293 306 315 323 327 344 3 15 348
325 323 311 321 321 263 238 225 216 215 220 219 219 213 216 224 234 215 214 212 211 193 191 202 212 226 244 268 287 287 287 283 283 272 269 284 292 289 287 298 291 299 327 353
311 315 309 302 317 304 249 228 223 220 217 218 213 210 212 212 207 203 205 197 191 193 207 225 236 239 242 253 270 282 286 288 285 275 267 268 279 290 292 292 286 281 280 299
302 306 303 291 270 303 264 236 228 226 223 219 214 209 210 208 210 206 205 203 205 213 220 225 236 250 257 263 269 270 265 261 262 263 261 266 274 282 283 282 283 286 278 270